• în România
  • Lista ţărilor
  • Pe 7 zile
  • Temperatura apei
  • Hartă satelitară
  • Meteo pe hartă
  • Widget-uri
  • user-avatar
    Intrare

    Meteo pe oră la Lezhe

    Astăzi, 23 Ianuarie, Marţi

    Timp Temperatura Precipitaţii Vânt Presiune Umiditate
    00:00 +1°C° 0 mm 2 m/s 737 mmHg 64%
    01:00 0°C° 0 mm 3 m/s 736 mmHg 64%
    02:00 +1°C° 0 mm 2 m/s 736 mmHg 63%
    03:00 +1°C° 0 mm 2 m/s 737 mmHg 62%
    04:00 +2°C° 0 mm 2 m/s 737 mmHg 61%
    05:00 +2°C° 0 mm 2 m/s 737 mmHg 60%
    06:00 +2°C° 0 mm 2 m/s 737 mmHg 60%
    07:00 +2°C° 0 mm 2 m/s 737 mmHg 59%
    08:00 +3°C° 0 mm 2 m/s 738 mmHg 60%
    09:00 +5°C° 0 mm 2 m/s 738 mmHg 60%
    10:00 +7°C° 0 mm 2 m/s 739 mmHg 60%
    11:00 +8°C° 0 mm 2 m/s 739 mmHg 61%
    12:00 +8°C° 0 mm 2 m/s 739 mmHg 62%
    13:00 +9°C° 0 mm 2 m/s 739 mmHg 62%
    14:00 +8°C° 0 mm 3 m/s 739 mmHg 65%
    15:00 +8°C° 0 mm 3 m/s 740 mmHg 68%
    16:00 +7°C° 0 mm 3 m/s 740 mmHg 71%
    17:00 +5°C° 0 mm 3 m/s 741 mmHg 73%
    18:00 +4°C° 0 mm 3 m/s 741 mmHg 74%
    19:00 +1°C° 0 mm 4 m/s 742 mmHg 75%
    20:00 +1°C° 0 mm 4 m/s 742 mmHg 76%
    21:00 +1°C° 0 mm 4 m/s 743 mmHg 76%
    22:00 0°C° 0 mm 4 m/s 743 mmHg 76%
    23:00 0°C° 0 mm 4 m/s 744 mmHg 77%

    Mâine, 24 Ianuarie, Miercuri

    Timp Temperatura Precipitaţii Vânt Presiune Umiditate
    00:00 0°C° 0 mm 4 m/s 744 mmHg 77%
    01:00 0°C° 0 mm 4 m/s 745 mmHg 77%
    02:00 -1°C° 0 mm 4 m/s 745 mmHg 77%
    03:00 -1°C° 0 mm 4 m/s 745 mmHg 77%
    04:00 -1°C° 0 mm 4 m/s 745 mmHg 77%
    05:00 -1°C° 0 mm 4 m/s 745 mmHg 77%
    06:00 -1°C° 0 mm 4 m/s 746 mmHg 76%
    07:00 -1°C° 0 mm 4 m/s 746 mmHg 76%
    08:00 0°C° 0 mm 4 m/s 746 mmHg 72%
    09:00 +1°C° 0 mm 4 m/s 747 mmHg 68%
    10:00 +4°C° 0 mm 4 m/s 747 mmHg 64%
    11:00 +5°C° 0 mm 3 m/s 747 mmHg 62%
    12:00 +5°C° 0 mm 3 m/s 747 mmHg 60%
    13:00 +7°C° 0 mm 3 m/s 747 mmHg 58%
    14:00 +7°C° 0 mm 3 m/s 747 mmHg 61%
    15:00 +6°C° 0 mm 2 m/s 747 mmHg 65%
    16:00 +6°C° 0 mm 2 m/s 747 mmHg 68%
    17:00 +5°C° 0 mm 2 m/s 747 mmHg 69%
    18:00 +2°C° 0 mm 3 m/s 747 mmHg 71%
    19:00 +1°C° 0 mm 3 m/s 747 mmHg 73%
    20:00 +1°C° 0 mm 3 m/s 748 mmHg 72%
    21:00 +1°C° 0 mm 3 m/s 748 mmHg 70%
    22:00 +2°C° 0 mm 2 m/s 748 mmHg 69%
    23:00 +2°C° 0 mm 2 m/s 748 mmHg 67%

    Poimâine, 25 Ianuarie, Joi

    Timp Temperatura Precipitaţii Vânt Presiune Umiditate
    00:00 +2°C° 0 mm 2 m/s 747 mmHg 65%
    01:00 +2°C° 0 mm 2 m/s 747 mmHg 63%
    02:00 +2°C° 0 mm 2 m/s 747 mmHg 61%
    03:00 +2°C° 0 mm 2 m/s 747 mmHg 60%
    04:00 +2°C° 0 mm 2 m/s 746 mmHg 58%
    05:00 +2°C° 0 mm 2 m/s 746 mmHg 56%
    06:00 +2°C° 0 mm 2 m/s 746 mmHg 55%
    07:00 +3°C° 0 mm 2 m/s 746 mmHg 53%
    08:00 +5°C° 0 mm 1 m/s 746 mmHg 52%
    09:00 +7°C° 0 mm 1 m/s 746 mmHg 51%
    10:00 +9°C° 0 mm 1 m/s 746 mmHg 49%
    11:00 +9°C° 0 mm 1 m/s 746 mmHg 50%
    12:00 +10°C° 0 mm 1 m/s 745 mmHg 50%
    13:00 +10°C° 0 mm 1 m/s 745 mmHg 51%
    14:00 +10°C° 0 mm 1 m/s 744 mmHg 55%
    15:00 +9°C° 0 mm 1 m/s 744 mmHg 59%
    16:00 +8°C° 0 mm 1 m/s 744 mmHg 63%
    17:00 +7°C° 0 mm 1 m/s 744 mmHg 64%
    18:00 +6°C° 0 mm 1 m/s 744 mmHg 65%
    19:00 +6°C° 0 mm 1 m/s 744 mmHg 66%
    20:00 +5°C° 0 mm 1 m/s 744 mmHg 66%
    21:00 +5°C° 0 mm 1 m/s 744 mmHg 66%
    22:00 +5°C° 0 mm 1 m/s 744 mmHg 66%
    23:00 +5°C° 0 mm 1 m/s 744 mmHg 66%

    26 Ianuarie, Vineri

    Timp Temperatura Precipitaţii Vânt Presiune Umiditate
    00:00 +5°C° 0 mm 1 m/s 744 mmHg 65%
    01:00 +5°C° 0 mm 1 m/s 743 mmHg 65%
    02:00 +5°C° 0 mm 1 m/s 743 mmHg 64%
    03:00 +4°C° 0 mm 2 m/s 743 mmHg 63%
    04:00 +4°C° 0 mm 2 m/s 742 mmHg 63%
    05:00 +4°C° 0 mm 2 m/s 743 mmHg 62%
    06:00 +4°C° 0 mm 2 m/s 743 mmHg 61%
    07:00 +4°C° 0 mm 2 m/s 743 mmHg 60%
    08:00 +5°C° 0 mm 2 m/s 743 mmHg 58%
    09:00 +7°C° 0 mm 2 m/s 743 mmHg 56%
    10:00 +8°C° 0 mm 2 m/s 743 mmHg 54%
    11:00 +9°C° 0 mm 2 m/s 742 mmHg 54%
    12:00 +9°C° 0 mm 2 m/s 742 mmHg 55%
    13:00 +10°C° 0 mm 2 m/s 742 mmHg 56%
    14:00 +10°C° 0 mm 1 m/s 742 mmHg 59%
    15:00 +10°C° 0 mm 1 m/s 742 mmHg 63%
    16:00 +9°C° 0 mm 1 m/s 742 mmHg 67%
    17:00 +8°C° 0 mm 1 m/s 742 mmHg 68%
    18:00 +7°C° 0 mm 1 m/s 742 mmHg 68%
    19:00 +6°C° 0 mm 1 m/s 742 mmHg 69%
    20:00 +6°C° 0 mm 1 m/s 743 mmHg 68%
    21:00 +5°C° 0 mm 2 m/s 743 mmHg 67%
    22:00 +5°C° 0 mm 2 m/s 743 mmHg 66%
    23:00 +5°C° 0 mm 2 m/s 743 mmHg 66%

    27 Ianuarie, Sâmbătă

    Timp Temperatura Precipitaţii Vânt Presiune Umiditate
    00:00 +5°C° 0 mm 2 m/s 743 mmHg 66%
    01:00 +5°C° 0 mm 2 m/s 743 mmHg 66%
    02:00 +5°C° 0 mm 2 m/s 743 mmHg 67%
    03:00 +5°C° 0 mm 2 m/s 743 mmHg 67%
    04:00 +5°C° 0 mm 2 m/s 743 mmHg 68%
    05:00 +5°C° 0 mm 2 m/s 743 mmHg 68%
    06:00 +5°C° 0 mm 2 m/s 743 mmHg 69%
    07:00 +5°C° 0 mm 2 m/s 743 mmHg 69%
    08:00 +6°C° 0 mm 2 m/s 743 mmHg 67%
    09:00 +9°C° 0 mm 1 m/s 744 mmHg 66%
    10:00 +10°C° 0 mm 1 m/s 744 mmHg 65%
    11:00 +11°C° 0 mm 1 m/s 744 mmHg 65%
    12:00 +12°C° 0 mm 1 m/s 744 mmHg 66%
    13:00 +12°C° 0 mm 1 m/s 743 mmHg 66%
    14:00 +12°C° 0 mm 1 m/s 744 mmHg 69%
    15:00 +11°C° 0 mm 1 m/s 744 mmHg 72%
    16:00 +10°C° 0 mm 1 m/s 744 mmHg 75%
    17:00 +9°C° 0 mm 1 m/s 744 mmHg 76%
    18:00 +9°C° 0 mm 1 m/s 745 mmHg 77%
    19:00 +8°C° 0 mm 1 m/s 745 mmHg 78%
    20:00 +8°C° 0 mm 1 m/s 745 mmHg 76%
    21:00 +6°C° 0 mm 2 m/s 746 mmHg 74%
    22:00 +6°C° 0 mm 2 m/s 746 mmHg 72%
    23:00 +6°C° 0 mm 2 m/s 746 mmHg 70%

    28 Ianuarie, Duminică

    Timp Temperatura Precipitaţii Vânt Presiune Umiditate
    00:00 +6°C° 0 mm 2 m/s 746 mmHg 69%
    01:00 +5°C° 0 mm 2 m/s 747 mmHg 68%
    02:00 +5°C° 0 mm 2 m/s 747 mmHg 67%
    03:00 +5°C° 0 mm 2 m/s 747 mmHg 67%
    04:00 +5°C° 0 mm 2 m/s 747 mmHg 66%
    05:00 +5°C° 0 mm 2 m/s 747 mmHg 66%
    06:00 +5°C° 0 mm 2 m/s 747 mmHg 66%
    07:00 +5°C° 0 mm 2 m/s 748 mmHg 65%
    08:00 +6°C° 0 mm 2 m/s 748 mmHg 62%
    09:00 +8°C° 0 mm 2 m/s 748 mmHg 60%
    10:00 +11°C° 0 mm 1 m/s 748 mmHg 57%
    11:00 +12°C° 0 mm 1 m/s 748 mmHg 54%
    12:00 +12°C° 0 mm 1 m/s 748 mmHg 52%
    13:00 +13°C° 0 mm 1 m/s 748 mmHg 49%
    14:00 +13°C° 0 mm 1 m/s 747 mmHg 53%
    15:00 +12°C° 0 mm 1 m/s 747 mmHg 57%
    16:00 +10°C° 0 mm 2 m/s 747 mmHg 61%
    17:00 +9°C° 0 mm 2 m/s 748 mmHg 62%
    18:00 +8°C° 0 mm 2 m/s 748 mmHg 64%
    19:00 +7°C° 0 mm 2 m/s 748 mmHg 65%
    20:00 +7°C° 0 mm 2 m/s 748 mmHg 64%
    21:00 +6°C° 0 mm 2 m/s 748 mmHg 63%
    22:00 +7°C° 0 mm 1 m/s 748 mmHg 62%
    23:00 +7°C° 0 mm 1 m/s 748 mmHg 60%
    Arată mai mult